Regional Weather Roundup
Issued by NWS

Home | Current Version | Previous Version | Graphics & Text | Print | Product List | Glossary On
Versions: 1 2 3 4 5 6 7 8 9 10 11 12 13 14 15 16 17 18 19 20 21 22 23 24 25 26 27 28 29 30 31 32 33 34 35 36 37 38 39 40 41 42 43 44 45 46 47 48 49 50
000
ASUS43 KFSD 240110
RWRSD

WEATHER ROUNDUP FOR SOUTH DAKOTA
NATIONAL WEATHER SERVICE SIOUX FALLS SD
800 PM CDT WED MAY 23 2018

NOTE: "FAIR" INDICATES FEW OR NO CLOUDS BELOW 12,000 FEET WITH NO
SIGNIFICANT WEATHER AND/OR OBSTRUCTIONS TO VISIBILITY.


SDZ001>005-009-010-012>017-240200-
NORTHWEST AND NORTH CENTRAL SOUTH DAKOTA

CITY           SKY/WX    TMP DP  RH WIND       PRES   REMARKS
BUFFALO          N/A     73  58  59 S15       29.78S
FAITH            N/A     70  66  87 S10       29.86S
MOBRIDGE       MOSUNNY   77  66  68 SE3       29.82S
$$

SDZ012>016-024>037-041>051-057-063-072>074-240200-
SOUTHWEST AND SOUTH CENTRAL SOUTH DAKOTA

CITY           SKY/WX    TMP DP  RH WIND       PRES   REMARKS
RAPID CTY ARPT CLOUDY    72  45  37 S25G32    29.88F
PIERRE         MOSUNNY   80  64  58 S10       29.82F
CUSTER         CLOUDY    61  41  47 W6        30.04R THUNDER
ELLSWORTH AFB  CLOUDY    73  47  39 SW18      29.87F
PHILIP         MOSUNNY   79  67  66 E3        29.83F
PINE RIDGE     TSTM      59  57  93 NW18G41   29.90R
SPEARFISH      FAIR      75  50  41 S5        29.90S
WINNER         FAIR      81  62  52 S10       29.87F
$$

SDZ004>011-016>023-039-040-240200-
NORTHEAST SOUTH DAKOTA

CITY           SKY/WX    TMP DP  RH WIND       PRES   REMARKS
ABERDEEN       MOCLDY    82  61  48 SE14      29.86S
WATERTOWN      CLEAR     78  62  57 S9        29.94S
BROOKINGS      CLOUDY    79  64  60 S5        29.95S
SISSETON         N/A     73  65  75 SE17      29.93S
$$

SDZ017-020-022-023-036>040-048>070-240200-
SOUTHEAST SOUTH DAKOTA

CITY           SKY/WX    TMP DP  RH WIND       PRES   REMARKS
SIOUX FALLS    CLOUDY    82  63  52 S12G25    29.94S
HURON          PTCLDY    82  60  47 S13       29.87S
CHAMBERLAIN    PTCLDY    83  65  55 S10       29.86S
MITCHELL       PTCLDY    81  65  58 SE12      29.89S
YANKTON        CLOUDY    76  65  68 E5        29.92F
$$

ABBREVIATIONS USED IN REMARKS
   TC - TEMPERATURE IN CELSIUS
  WCI - WIND CHILL INDEX
   HX - HEAT INDEX
  VSB - VISIBILITY




USA.gov is the U.S. government's official web portal to all federal, state and local government web resources and services.